Regional Weather Roundup
Issued by NWS

Home | Current Version | Previous Version | Graphics & Text | Print | Product List | Glossary On
Versions: 1 2 3 4 5 6 7 8 9 10 11 12 13 14 15 16 17 18 19 20 21 22 23 24 25 26 27 28 29 30 31 32 33 34 35 36 37 38 39 40 41 42 43 44 45 46 47 48 49 50
443
ASUS43 KBIS 282210
RWRND

NORTH DAKOTA REGIONAL WEATHER ROUNDUP
NATIONAL WEATHER SERVICE BISMARCK ND
500 PM CDT THU JUL 28 2016

NOTE: "FAIR" INDICATES FEW OR NO CLOUDS BELOW 12,000 FEET WITH NO
SIGNIFICANT WEATHER AND/OR OBSTRUCTIONS TO VISIBILITY.


NDZ001>003-009>011-017-282300-
NORTHWEST NORTH DAKOTA

CITY           SKY/WX    TMP DP  RH WIND       PRES   REMARKS
WILLISTON      MOSUNNY   78  50  37 VRB3      30.13F
MINOT          SUNNY     78  51  38 NE8       30.12F
$$

NDZ018>021-031>035-040>046-282300-
SOUTHWEST NORTH DAKOTA

CITY           SKY/WX    TMP DP  RH WIND       PRES   REMARKS
BISMARCK       CLOUDY    74  56  53 N6        30.11F
DICKINSON      CLOUDY    65  57  75 E7        30.14S
GARRISON         N/A     73  55  53 VRB5      30.13F
HETTINGER ARPT PTSUNNY   71  59  65 E14       30.14S
$$

NDZ004>008-012>016-024-026-027-054-282300-
NORTHEAST NORTH DAKOTA

CITY           SKY/WX    TMP DP  RH WIND       PRES   REMARKS
GRAND FORKS    MOSUNNY   77  56  48 N12       30.09F
GRND FRKS AFB  MOSUNNY   75  57  52 N6        30.11
DEVILS LAKE    MOSUNNY   71  57  61 NW6       30.13F
$$

NDZ022-023-025-028>030-036>039-047>053-282300-
SOUTHEAST NORTH DAKOTA

CITY           SKY/WX    TMP DP  RH WIND       PRES   REMARKS
FARGO          MOSUNNY   80  61  52 N9        30.05F
JAMESTOWN      MOSUNNY   74  61  63 E7        30.07F
$$





USA.gov is the U.S. government's official web portal to all federal, state and local government web resources and services.